Showing default

KUIPER-00229, 68578

Orbit data source: Space-Track

KUIPER-00229, 68578 is a payload satellite owned by Kuiper Systems (US) in LEO that was launched on Sat, 04 Apr 2026 UTC via an ATLAS V 551 launch vehicle from the Air Force Eastern Test Range (AFETR). Payload-class satellites include a variety of spacecraft equipped with specific instruments for various scientific and technological missions. These include communications satellites like Starlink; space stations such as the ISS; scientific satellites like the Hubble; Earth observation satellites from companies like Planet Labs, Umbra, and HawkEye 360; GPS; miniature CubeSats for education and research; and military/defense satellites.

Loading next visibility...
Identifier
68578, 2026-072F
Orbit
LEO
Country
Flag of USUS
Related business
Manufacturer
Kuiper Systems
Mission
Operational spacecraft
Bus & Motor
KUIPER, Unknown motor
Mass
~490 kg wet, ~490 kg dry
Launch date (UTC)
2026-04-04 (1 month ago)
Launch vehicle
ATLAS V 551
Launch site
Air Force Eastern Test Range (AFETR)
Object type
Payload
Rocket body
Debris
Shape & HBR
Unknown shape, 3.4 m
Radar Cross Section
RCS unknown

Expand to show TLE details & history
Last TLE update: 4 hours ago

TLE from 4 hours ago
0 KUIPER-00229
1 68578U 26072F   26138.83335647 -.00012466  00000-0 -15227-2 0  9990
2 68578  51.9028 324.9155 0002963 325.7703  43.3090 14.82223649  5697
Epoch: 2026-05-18T20:00Z
TLE epoch observation values (Epoch: 2026-05-18T20:00:01.999Z)
Latitude
7.11946°
Longitude
153.98033°
Altitude
620.91 km
Speed
7.551 km/s
True Right ascension
22h 02m 01s
True Declination
7° 04' 35"
Sunlit
Object was in daylight at epoch
Visualization orbit readout
Latitude
Unknown
Longitude
Unknown
Altitude
Unknown
Speed
Unknown
Apparent Right ascension
Unknown
Apparent Declination
Unknown
Sunlit
N/A
Visualization observer readout
Local Sidereal Time
09:11:17
Azimuth
Unknown
Elevation
Unknown
Doppler factor
Unknown
Orbital elements
Apogee altitude
624.839 km
Perigee altitude
620.691 km
Semi-major axis
7,000.902 km
Eccentricity
0.0003
Inclination
51.9028°
RAAN
324.9155°
Arg. of periapsis
325.7703°
True anomaly
43.3323°
Mean anomaly
43.309°
Eccentric anomaly
43.32065°
Mean motion
3.7052 °/min
Orbital period
97.16 mins
BSTAR
-0.0015227
Loading maneuver chart data...
Computing Atmospheric mass density...
Loading historical data...
Loading historical data...
Loading historical data...
Loading historical data...
Loading historical data...
Loading historical data...
Loading historical data...

Documentation

Showing up to 5 results
|